Wind_Speed
23 22 21 20 19 20 19 17 15 14 11 7 4 4 4 9 12 23 29 23 23 20 14 11 4 7 9 6 5 2 4 1 4 5 5 12 8 11 12 12 14 10 11 7 15
24 23 22 21 20 19 18 16 13 12 11 9 4 3 4 7 7 29 24 25 21 17 14 16 14 9 6 5 4 5 3 1 3 3 4 6 8 7 10 19 15 14 3 12 22
26 24 22 21 20 20 17 14 12 10 8 10 9 4 4 4 3 20 25 26 21 17 12 10 9 6 7 6 7 3 3 2 0 6 13 12 8 12 1 3 8 23 30 28 26
25 24 22 20 19 19 16 12 11 9 8 7 6 4 7 8 3 19 22 26 18 14 11 10 13 5 5 3 7 3 4 5 8 13 10 5 11 10 10 8 17 22 24 27 23
25 25 24 21 20 20 16 12 9 7 7 7 6 7 5 11 10 18 20 23 15 14 15 12 17 7 3 4 9 2 5 13 19 22 18 10 10 9 12 19 16 20 23 22 22
29 27 24 20 19 19 15 12 8 4 2 4 7 8 15 9 13 21 26 18 13 15 13 13 7 5 3 3 3 6 10 16 13 12 9 7 6 1 7 15 18 19 20 18 15
30 30 25 19 19 19 15 12 7 6 4 4 3 2 17 12 14 22 26 13 11 15 16 13 8 6 3 5 8 8 5 8 3 12 5 18 3 4 18 22 22 20 14 19 20
27 30 27 19 22 19 14 9 6 6 6 5 3 5 6 13 15 26 24 9 8 10 11 12 8 7 5 9 8 6 5 5 7 11 6 6 7 8 18 27 24 25 19 17 23
25 27 26 22 21 18 14 4 9 5 8 4 5 3 4 8 22 30 17 11 7 9 7 8 5 5 6 3 5 6 3 9 8 6 3 4 12 9 26 22 13 20 22 22 21
23 25 26 24 20 20 15 1 14 5 2 4 10 3 12 13 16 29 9 11 6 8 3 2 4 4 5 6 2 6 5 5 7 6 11 8 9 7 16 18 15 19 21 27 28
22 24 25 25 20 24 17 2 2 3 21 12 11 3 12 12 9 28 24 3 7 6 4 2 7 3 4 3 2 3 4 6 12 7 5 6 9 5 6 17 22 26 28 27 31
22 20 23 25 19 25 18 4 7 7 7 8 6 11 10 12 9 30 28 7 8 4 7 6 2 3 4 4 1 4 7 7 7 2 10 9 11 2 9 5 16 21 27 30 34
22 19 20 23 15 25 21 10 10 6 3 3 6 8 12 7 7 22 28 7 7 6 5 3 2 2 3 4 6 5 4 5 7 14 7 3 2 3 6 6 19 23 25 27 29
20 23 21 20 9 22 15 4 5 3 4 7 6 6 10 1 3 18 23 5 5 3 4 2 4 4 5 3 2 5 4 11 16 3 2 2 4 3 11 10 15 24 29 32 34
22 24 23 16 12 18 14 2 6 2 3 3 4 6 7 6 8 15 16 5 3 5 3 2 5 6 4 5 0 8 14 15 10 4 2 5 2 4 9 15 20 22 28 30 33
20 22 21 13 13 17 10 3 3 5 4 2 4 5 4 7 7 11 11 13 2 3 4 4 8 2 5 7 2 8 10 4 4 3 3 4 0 3 6 14 18 24 31 33 35
19 21 18 10 15 16 7 1 4 5 3 5 4 4 2 5 5 7 5 8 4 7 7 7 5 6 5 5 6 9 6 5 6 5 2 2 1 6 3 8 12 19 30 33 32
16 18 12 9 16 15 9 4 5 1 3 3 3 4 2 5 3 7 3 4 4 4 3 4 7 6 8 1 4 3 4 4 3 1 4 5 3 5 5 5 17 21 27 31 32
14 16 5 12 16 12 3 5 4 5 2 5 3 2 3 2 2 3 3 1 1 1 4 4 5 5 3 4 1 5 4 3 2 2 3 3 6 6 4 10 18 22 25 30 32
14 15 4 10 13 10 4 2 2 0 1 1 0 2 3 4 4 4 2 3 2 2 3 3 5 2 6 5 5 4 2 3 3 4 5 4 3 5 18 18 14 18 24 27 28
14 7 3 12 11 3 3 4 2 2 0 0 2 2 1 2 2 1 3 3 2 1 3 3 4 6 3 2 1 4 4 3 1 1 1 3 5 3 8 7 11 15 21 25 25
8 4 5 7 2 3 2 4 2 4 2 1 1 2 2 2 0 2 3 5 4 2 2 2 4 5 6 7 5 2 3 3 3 6 2 1 5 4 4 6 10 14 18 20 20
7 5 3 4 1 1 1 2 3 4 4 4 4 4 2 4 1 3 2 1 8 3 4 2 1 4 8 6 4 5 2 3 2 1 4 1 4 4 7 6 11 15 16 18 19
5 2 2 1 3 5 4 4 4 6 5 5 4 3 2 3 5 2 2 3 7 3 4 3 3 6 6 6 2 4 2 2 1 2 2 5 7 6 9 8 11 13 14 15 17
2 2 2 2 3 2 1 1 1 3 5 7 2 5 5 2 1 4 4 2 3 4 2 3 2 3 7 14 13 13 11 5 6 6 4 4 4 9 7 5 8 8 10 13 15
3 2 1 3 2 3 1 4 6 2 6 4 4 4 6 5 7 7 5 4 5 3 2 2 2 4 5 4 3 7 11 7 5 5 8 10 13 5 5 7 9 9 8 9 12
4 5 3 3 3 3 4 6 6 5 6 4 8 3 5 13 14 9 10 5 6 8 5 4 2 3 5 5 7 4 5 4 3 5 5 5 5 3 3 6 7 8 7 6 7
Wind_Direction
19 17 15 13 13 12 12 17 16 20 28 37 138 135 60 17 25 18 29 5 351 351 0 6 74 92 78 66 40 36 55 244 356 359 313 3 11 352 342 331 336 8 106 73 349
17 14 12 11 9 10 9 11 18 22 34 41 89 118 358 353 7 26 13 1 357 1 10 19 30 61 72 39 40 68 106 149 340 8 349 334 350 356 348 335 317 322 241 292 313
15 12 10 7 7 8 8 10 19 31 50 61 80 89 3 324 6 8 359 0 3 6 12 36 26 48 56 63 26 13 169 340 213 6 349 325 328 333 101 333 297 305 310 313 316
18 14 10 7 6 5 7 15 26 48 57 61 87 68 34 37 67 358 349 354 360 6 5 36 34 57 61 39 2 5 354 356 309 315 314 282 297 301 276 261 298 304 310 310 312
18 14 12 10 6 5 9 16 30 63 70 62 62 52 19 59 30 2 354 355 2 15 23 32 41 43 53 341 351 85 331 317 310 309 314 300 271 273 274 299 307 306 316 305 296
19 12 7 8 8 6 8 12 23 44 91 84 93 51 52 70 29 0 1 360 16 33 33 35 33 38 51 356 12 302 294 298 309 325 318 301 287 234 295 315 302 305 308 327 317
17 14 10 9 7 5 3 11 28 31 85 106 89 29 45 51 15 353 3 10 31 47 38 39 51 71 356 337 332 305 327 339 6 352 308 352 26 238 323 319 304 303 296 298 300
11 15 14 14 6 2 359 10 24 65 95 113 59 40 72 21 4 6 9 54 63 57 38 48 51 67 40 326 358 3 48 3 306 316 310 28 301 312 315 319 310 313 330 322 304
6 10 10 6 3 1 353 3 20 110 84 79 40 78 40 9 10 13 9 32 46 25 7 6 37 59 36 45 12 6 297 297 315 262 271 64 291 279 312 315 16 354 341 333 318
5 3 4 3 3 360 351 324 54 135 136 42 42 28 16 345 2 5 26 37 46 3 24 27 47 64 26 43 316 298 301 285 279 279 315 295 278 337 40 41 16 355 347 337 321
1 2 2 358 3 2 8 129 154 73 64 69 54 57 3 4 7 13 13 26 45 42 12 33 63 22 308 310 278 252 257 278 282 282 298 281 309 344 11 26 9 354 344 337 330
356 355 2 360 359 6 14 76 100 128 77 70 44 37 18 5 359 9 12 43 41 19 353 29 68 339 319 347 70 292 293 295 286 281 322 291 305 151 26 32 14 346 337 331 330
353 354 354 357 350 4 17 75 120 110 100 29 21 12 13 352 29 359 5 9 31 30 354 137 238 342 26 325 335 312 224 259 257 321 277 322 341 330 348 328 349 347 337 331 328
350 349 342 354 357 358 14 62 137 67 73 321 347 10 7 82 54 6 1 20 19 341 322 256 324 9 334 286 52 312 233 280 294 328 285 58 290 3 331 341 353 343 339 335 332
346 348 344 353 353 359 353 51 170 31 32 356 339 352 32 63 336 5 1 54 45 315 17 280 328 347 339 258 339 258 303 291 290 185 356 339 291 281 360 342 344 337 338 339 336
343 351 359 0 357 353 359 109 138 40 263 319 350 6 27 17 11 346 14 36 27 7 342 280 298 241 216 284 250 312 324 20 64 96 36 287 195 303 355 337 328 338 338 342 347
342 345 348 354 352 352 3 128 35 119 15 352 337 2 33 345 1 19 51 22 43 27 1 333 317 311 9 325 344 10 6 358 3 12 263 348 21 250 294 345 332 328 338 345 356
340 344 348 351 349 350 352 58 67 322 284 350 349 321 58 16 33 360 58 31 44 68 69 33 334 4 346 47 259 345 93 125 259 337 295 351 311 289 212 343 346 345 348 353 2
332 339 332 356 351 348 358 54 203 216 270 341 323 24 328 37 40 47 48 123 8 110 110 31 277 308 231 302 33 327 30 210 219 242 348 280 311 341 309 344 356 352 354 355 3
332 330 309 347 347 343 64 173 233 116 12 59 106 31 315 331 9 42 350 262 147 229 151 143 305 281 299 340 32 91 323 31 8 20 325 307 300 286 337 346 350 350 351 355 10
330 321 309 340 336 349 118 203 171 133 283 242 201 301 2 309 120 288 248 275 184 135 179 109 114 288 341 15 350 355 13 4 140 169 196 310 279 274 289 327 339 341 350 4 13
319 322 309 331 352 33 128 168 184 185 171 188 162 193 176 128 251 264 251 213 184 167 142 199 161 275 260 293 286 195 130 90 109 297 259 226 278 252 252 315 340 352 5 19 23
305 273 286 315 129 338 304 270 214 164 210 185 205 196 163 172 347 211 242 199 177 161 173 201 11 338 349 351 1 79 92 115 212 167 240 163 272 196 333 3 18 16 19 26 32
303 342 309 3 126 140 174 228 212 210 202 191 190 154 158 199 193 241 234 196 197 173 140 155 149 174 202 217 144 310 252 295 228 258 267 236 292 315 334 340 357 19 24 29 38
268 295 320 292 330 11 94 215 209 245 221 194 237 219 169 188 282 217 211 139 144 182 92 106 222 190 255 265 267 262 260 220 180 219 192 266 246 292 297 295 336 16 23 27 33
212 204 259 281 253 134 183 235 214 234 162 227 197 196 180 193 194 202 155 190 199 110 96 1 271 356 288 277 149 266 248 233 195 222 255 262 281 207 280 306 332 10 23 24 31
228 231 213 209 182 120 225 209 210 170 226 216 197 155 213 239 241 244 210 213 195 158 178 140 95 15 270 340 321 338 228 191 183 214 194 213 230 332 280 312 327 360 21 26 19
Height
1552 1549 1546 1544 1541 1538 1536 1533 1531 1529 1527 1525 1524 1523 1523 1522 1522 1519 1512 1521 1517 1512 1509 1506 1504 1502 1503 1505 1506 1507 1516 1517 1514 1513 1510 1508 1508 1505 1505 1502 1500 1500 1498 1499 1498
1553 1550 1547 1544 1541 1538 1535 1533 1531 1529 1527 1526 1525 1524 1523 1523 1522 1520 1525 1521 1516 1511 1509 1506 1505 1504 1504 1506 1508 1509 1519 1514 1514 1513 1514 1511 1510 1508 1507 1503 1499 1498 1500 1498 1497
1554 1550 1547 1545 1542 1539 1536 1534 1532 1529 1527 1526 1526 1526 1525 1523 1523 1524 1524 1520 1517 1513 1511 1509 1507 1507 1507 1509 1512 1513 1517 1514 1513 1513 1513 1511 1508 1508 1507 1507 1504 1499 1495 1496 1495
1555 1552 1548 1545 1542 1539 1536 1533 1532 1530 1529 1528 1527 1526 1524 1522 1531 1527 1524 1521 1517 1514 1513 1510 1507 1508 1513 1514 1515 1516 1514 1514 1513 1512 1511 1510 1507 1506 1505 1504 1502 1500 1497 1493 1493
1556 1552 1548 1545 1542 1539 1536 1534 1532 1531 1529 1528 1528 1527 1525 1524 1530 1528 1525 1520 1517 1515 1512 1511 1511 1512 1516 1516 1514 1514 1515 1512 1511 1508 1507 1505 1504 1505 1503 1500 1499 1497 1494 1492 1491
1557 1553 1549 1545 1542 1539 1536 1534 1532 1531 1530 1528 1528 1527 1526 1528 1531 1528 1523 1519 1517 1515 1514 1513 1514 1515 1516 1516 1516 1515 1513 1510 1506 1506 1504 1503 1502 1502 1500 1498 1496 1494 1491 1489 1488
1558 1553 1549 1546 1543 1539 1537 1535 1532 1531 1530 1529 1528 1528 1528 1533 1531 1529 1522 1517 1517 1516 1515 1514 1514 1515 1517 1517 1516 1514 1514 1509 1506 1505 1503 1500 1502 1500 1498 1496 1494 1491 1489 1487 1487
1559 1555 1551 1547 1544 1540 1537 1535 1533 1532 1531 1530 1530 1530 1531 1532 1532 1527 1521 1520 1519 1518 1518 1517 1517 1517 1518 1519 1516 1516 1517 1524 1509 1507 1503 1502 1504 1498 1495 1494 1491 1489 1486 1483 1482
1560 1556 1553 1549 1545 1541 1537 1535 1533 1533 1532 1531 1531 1530 1534 1533 1530 1525 1522 1520 1519 1519 1519 1518 1518 1519 1519 1522 1530 1527 1533 1524 1514 1504 1505 1506 1505 1496 1494 1491 1490 1488 1484 1480 1478
1561 1557 1554 1550 1545 1541 1536 1535 1536 1533 1533 1532 1532 1536 1534 1535 1531 1527 1524 1521 1520 1519 1519 1519 1519 1523 1526 1530 1545 1533 1531 1523 1520 1506 1503 1502 1500 1496 1495 1492 1492 1490 1486 1480 1476
1561 1558 1554 1550 1546 1541 1536 1535 1538 1538 1535 1540 1541 1540 1538 1535 1533 1528 1523 1523 1520 1520 1523 1521 1528 1533 1527 1526 1526 1526 1531 1528 1512 1504 1502 1499 1498 1496 1496 1493 1489 1486 1482 1478 1473
1562 1558 1554 1550 1546 1543 1538 1535 1537 1541 1543 1541 1541 1540 1538 1536 1533 1531 1527 1525 1524 1527 1524 1527 1533 1526 1523 1522 1523 1522 1526 1524 1510 1502 1504 1496 1496 1496 1496 1495 1493 1489 1482 1475 1468
1561 1557 1554 1549 1546 1543 1539 1538 1539 1540 1543 1544 1541 1540 1539 1538 1537 1535 1531 1528 1529 1530 1531 1531 1526 1523 1523 1522 1521 1519 1521 1518 1514 1503 1497 1498 1500 1500 1495 1494 1492 1489 1484 1476 1468
1561 1557 1553 1549 1547 1543 1542 1541 1542 1542 1552 1547 1542 1541 1540 1537 1538 1537 1534 1533 1532 1533 1531 1528 1524 1524 1524 1522 1521 1526 1509 1508 1506 1513 1519 1500 1504 1500 1496 1491 1491 1487 1481 1473 1464
1559 1556 1551 1547 1547 1544 1544 1541 1542 1544 1568 1548 1544 1543 1541 1540 1542 1539 1536 1532 1536 1535 1534 1528 1526 1526 1526 1526 1518 1517 1507 1504 1504 1508 1508 1506 1502 1503 1495 1491 1490 1487 1481 1474 1464
1559 1555 1552 1548 1547 1545 1543 1542 1544 1556 1563 1545 1545 1543 1542 1543 1542 1541 1538 1534 1536 1535 1535 1531 1527 1525 1526 1519 1515 1512 1503 1505 1510 1513 1535 1507 1508 1506 1506 1504 1494 1487 1480 1472 1462
1558 1555 1551 1549 1548 1544 1542 1544 1555 1563 1548 1550 1550 1547 1546 1547 1546 1546 1548 1551 1559 1557 1563 1541 1529 1525 1523 1523 1517 1517 1519 1548 1531 1542 1517 1507 1502 1505 1507 1504 1500 1490 1481 1473 1465
1556 1555 1551 1549 1547 1545 1543 1546 1564 1553 1557 1552 1551 1549 1547 1550 1551 1550 1550 1559 1555 1558 1569 1566 1546 1532 1527 1527 1528 1529 1533 1557 1558 1558 1512 1506 1525 1504 1503 1501 1499 1492 1484 1475 1467
1555 1553 1551 1548 1546 1544 1543 1565 1564 1564 1556 1555 1551 1550 1552 1552 1554 1553 1563 1562 1558 1559 1566 1581 1548 1533 1530 1527 1525 1525 1542 1530 1540 1542 1534 1523 1514 1506 1502 1501 1497 1491 1485 1478 1470
1554 1550 1549 1547 1545 1544 1546 1557 1556 1555 1556 1555 1555 1554 1553 1557 1559 1565 1571 1558 1558 1558 1557 1561 1565 1538 1532 1527 1526 1527 1530 1543 1546 1558 1549 1529 1529 1515 1503 1501 1499 1493 1487 1482 1475
1553 1549 1548 1547 1546 1544 1557 1557 1554 1555 1556 1558 1559 1555 1557 1564 1571 1575 1570 1559 1557 1557 1556 1558 1569 1547 1539 1536 1537 1535 1544 1540 1542 1541 1542 1529 1526 1514 1514 1508 1504 1498 1492 1485 1479
1552 1551 1548 1546 1548 1551 1555 1551 1553 1553 1554 1555 1555 1555 1555 1560 1567 1568 1565 1558 1556 1556 1560 1558 1566 1573 1544 1534 1535 1532 1538 1542 1559 1556 1540 1534 1522 1511 1511 1509 1506 1501 1495 1490 1484
1551 1548 1547 1547 1553 1554 1553 1553 1552 1552 1554 1554 1553 1553 1553 1554 1563 1558 1554 1554 1555 1556 1560 1558 1572 1577 1556 1544 1535 1543 1538 1542 1546 1548 1557 1544 1519 1509 1507 1507 1507 1502 1498 1494 1488
1553 1551 1548 1545 1546 1546 1550 1550 1549 1547 1547 1549 1550 1550 1552 1551 1552 1555 1552 1553 1554 1555 1556 1556 1568 1568 1568 1555 1553 1556 1546 1540 1541 1545 1549 1535 1518 1507 1507 1506 1505 1503 1500 1497 1493
1552 1551 1549 1551 1548 1549 1551 1552 1549 1548 1549 1547 1549 1549 1550 1560 1557 1552 1550 1551 1554 1554 1557 1558 1570 1569 1551 1543 1543 1539 1540 1543 1548 1536 1537 1527 1526 1511 1509 1507 1506 1504 1500 1498 1496
1547 1547 1549 1548 1547 1546 1548 1550 1547 1546 1548 1547 1548 1544 1548 1549 1544 1550 1549 1550 1549 1554 1558 1559 1566 1561 1554 1535 1537 1534 1526 1526 1533 1528 1528 1523 1516 1507 1507 1507 1505 1503 1502 1498 1498
1546 1545 1545 1544 1545 1548 1544 1538 1540 1542 1542 1540 1540 1545 1546 1541 1541 1540 1541 1543 1544 1549 1556 1560 1558 1569 1564 1541 1552 1537 1526 1526 1520 1521 1516 1518 1508 1507 1507 1505 1503 1502 1501 1500 1497